Terminal Aerodrome Forecast
Issued by NWS

Home | Current Version | Previous Version | Text Only | Print | Product List | Glossary On
Versions: 1 2 3 4 5 6 7 8 9 10 11 12 13 14 15 16 17 18 19 20 21
000
FTUS44 KMAF 301100
TAFCNM
TAF
KCNM 301124Z 3012/3112 20005KT P6SM BKN120 OVC250
     FM301600 25009KT P6SM SCT060 BKN250
     FM302100 32010KT P6SM BKN060 OVC250
     FM310200 04010KT P6SM BKN060 OVC250=

USA.gov is the U.S. government's official web portal to all federal, state and local government web resources and services.